Location: Gniazdowice
(50.2124°N, 20.2673°E)
Time: 21:19:51
(UTC+00:00)

SJ 16-02 - Pass Details

Date: 23 May 2024
Orbit: 594 x 606 km, 75.0° (Epoch: 22 June)

Event Time Altitude Azimuth Distance (km) Brightness Sun altitude
Exits shadow 00:03:50 - 139° (SE) 2,023 3.7 -16.5°
Reaches altitude 10° 00:04:12 10° 136° (SE) 1,928 3.7 -16.5°
Maximum altitude 00:06:56 17° 96° (E) 1,543 3.6 -16.3°
Drops below altitude 10° 00:09:40 10° 57° (ENE) 1,937 4.8 -16.2°
Sets 00:12:33 0° 37° (NE) 2,845 6.4 -16.0°
